Beaufort MCAS, SC

2:13 AM EDT on July 27, 2017 (GMT -0400)
Beaufort Marine Corps Air Station

Weather History for KNBC - April, 2014

Change the Weather History Date:

Friday, April 25, 2014

  Actual Average Record
Temperature  
Mean Temperature 72 °F -  
Max Temperature 84 °F 78 °F 95 °F (1958)
Min Temperature 61 °F 56 °F 40 °F (1974)
Cooling Degree Days 6    
Growing Degree Days 22 (Base 50)    
Moisture  
Dew Point 62 °F    
Average Humidity 74    
Maximum Humidity 93    
Minimum Humidity 38    
Precipitation  
Precipitation 0.00 in - - ()
Sea Level Pressure  
Sea Level Pressure 29.90 in    
Wind  
Wind Speed 5 mph (West)    
Max Wind Speed 17 mph    
Max Gust Speed 24 mph    
Visibility 8 miles    
Events      
Averages and records for this station are not official NWS values.
T = Trace of Precipitation, MM = Missing Value Source: NWS Daily Summary

Daily Weather History Graph

Daily Weather History Graph

Search for Another Location

Airport or City:

Trip Planner

Search our weather history database for the weather conditions in past years. The results will help you decide how hot, cold, wet, or windy it might be!

Date:

Astronomy

Apr. 25, 2014 Rise Set
Actual Time 6:42 AM EDT 7:59 PM EDT
Civil Twilight 6:16 AM EDT 8:25 PM EDT
Nautical Twilight 5:45 AM EDT 8:56 PM EDT
Astronomical Twilight 5:13 AM EDT 9:28 PM EDT
Moon 4:15 AM EDT (4/25) 4:32 PM EDT (4/25)
Length of Visible Light 14h 09m
Length of Day
13h 17m
Waning Crescent, 15% of the Moon is Illuminated
Apr 25
Waning Crescent
Apr 29
New
May 6
First Quarter
May 14
Full
May 21
Last Quarter

Hourly Weather History & Observations

Time (EDT) Temp. Heat Index Dew Point Humidity Pressure Visibility Wind Dir Wind Speed Gust Speed Precip Events Conditions
12:56 AM 64.0 °F - 61.0 °F 90% 29.97 in 9.0 mi Calm Calm - N/A   Clear
1:56 AM 63.0 °F - 61.0 °F 93% 29.95 in 7.0 mi ESE 3.5 mph - N/A   Mostly Cloudy
2:56 AM 63.0 °F - 61.0 °F 93% 29.94 in 7.0 mi Calm Calm - N/A   Clear
3:36 AM 61.0 °F - 59.0 °F 93% 29.93 in 1.8 mi Calm Calm - N/A   Partly Cloudy
3:43 AM 61.0 °F - 59.0 °F 93% 29.93 in 1.2 mi SSE 3.5 mph - N/A   Partly Cloudy
3:46 AM 63.0 °F - 61.0 °F 93% 29.93 in 3.0 mi SSE 3.5 mph - N/A   Clear
3:56 AM 64.0 °F - 62.1 °F 93% 29.93 in 8.0 mi SSE 3.5 mph - N/A   Clear
4:56 AM 63.0 °F - 61.0 °F 93% 29.94 in 2.5 mi Calm Calm - N/A   Scattered Clouds
5:08 AM 64.0 °F - 61.0 °F 90% 29.93 in 6.0 mi Calm Calm - N/A   Mostly Cloudy
5:56 AM 64.9 °F - 62.1 °F 90% 29.94 in 9.0 mi Calm Calm - N/A   Mostly Cloudy
6:56 AM 68.0 °F - 64.0 °F 87% 29.94 in 10.0 mi SW 4.6 mph - 0.00 in   Mostly Cloudy
7:56 AM 69.1 °F - 64.9 °F 87% 29.94 in 10.0 mi SW 4.6 mph - N/A   Mostly Cloudy
8:56 AM 72.0 °F - 64.9 °F 78% 29.94 in 10.0 mi West 9.2 mph - N/A   Mostly Cloudy
9:56 AM 75.0 °F - 64.0 °F 69% 29.94 in 10.0 mi West 10.4 mph - N/A   Scattered Clouds
10:56 AM 80.1 °F 81.7 °F 64.0 °F 58% 29.93 in 10.0 mi West 8.1 mph - N/A   Scattered Clouds
11:56 AM 82.0 °F 83.0 °F 62.1 °F 51% 29.91 in 10.0 mi West 13.8 mph 20.7 mph N/A   Scattered Clouds
12:56 PM 82.9 °F 83.2 °F 60.1 °F 46% 29.89 in 10.0 mi West 17.3 mph 21.9 mph N/A   Partly Cloudy
1:56 PM 82.9 °F 82.0 °F 55.0 °F 38% 29.88 in 7.0 mi WNW 10.4 mph 23.0 mph N/A   Scattered Clouds
2:56 PM 82.0 °F 82.1 °F 59.0 °F 45% 29.87 in 7.0 mi WNW 12.7 mph 24.2 mph N/A   Scattered Clouds
3:56 PM 80.1 °F 80.9 °F 60.1 °F 50% 29.85 in 7.0 mi WNW 13.8 mph - N/A   Mostly Cloudy
4:56 PM 81.0 °F 81.7 °F 61.0 °F 50% 29.83 in 10.0 mi WNW 16.1 mph - N/A   Partly Cloudy
5:56 PM 80.1 °F 81.1 °F 61.0 °F 52% 29.83 in 10.0 mi WNW 15.0 mph 23.0 mph N/A   Partly Cloudy
6:56 PM 79.0 °F - 62.1 °F 56% 29.82 in 10.0 mi WNW 15.0 mph - N/A   Partly Cloudy
7:56 PM 75.9 °F - 63.0 °F 64% 29.83 in 10.0 mi West 9.2 mph - N/A   Clear
8:56 PM 73.9 °F - 64.0 °F 71% 29.84 in 10.0 mi West 5.8 mph - N/A   Clear
9:56 PM 71.1 °F - 64.0 °F 78% 29.86 in 10.0 mi West 6.9 mph - N/A   Partly Cloudy
10:56 PM 70.0 °F - 64.0 °F 81% 29.88 in 10.0 mi West 9.2 mph - N/A   Clear
11:56 PM 71.1 °F - 64.0 °F 78% 29.89 in 10.0 mi WNW 6.9 mph - N/A   Clear